weather.gov     
National Weather Service

Regional Weather Roundup
NWS Homepage
This page is being discontinued on March 12, 2014.
The same data is available at this site. Please update your bookmarks.
Thank you, and we apologize for the inconvenience.
Please send an email to SR-SRH.Webmaster@noaa.gov with any concerns.


Current Version
Previous Version:    01  02  03  04  05  06  07  08  09  10  11  12  13  14  15  16  17  18  19  20  21  22  23  24  25  26  27  
[Printable]
388
ASUS41 KPHI 311010
RWRPHI

REGIONAL WEATHER ROUNDUP
NATIONAL WEATHER SERVICE MOUNT HOLLY NJ
600 AM EDT SUN AUG 31 2014

NOTE:  "FAIR" INDICATES FEW OR NO CLOUDS BELOW 12,000 FEET WITH NO
SIGNIFICANT WEATHER AND/OR OBSTRUCTIONS TO VISIBILITY.

 * = STATION DOES NOT REPORT PRECIPITATION (E.G. RAIN, SNOW, ETC.)
        OR FOG.

NJZ015>026-311100-
SOUTHERN NEW JERSEY

CITY           SKY/WX    TMP DP  RH WIND       PRES   REMARKS
POMONA         MOCLDY    74  71  91 MISG      30.13S
RIO GRANDE*    MOCLDY    73  70  88 S8        30.14S
MILLVILLE      MOCLDY   N/A N/A N/A SW3       30.13S
WRIGHTSTOWN    MOCLDY    70  68  94 S6        30.10S
MOUNT HOLLY    CLOUDY    71  67  87 CALM      30.11F
TRENTON        CLOUDY    70  64  81 S7        30.11F

$$
NJZ001>014-311100-
NORTHERN NEW JERSEY

CITY           SKY/WX    TMP DP  RH WIND       PRES   REMARKS
SUSSEX         CLOUDY    71  63  75 CALM      30.10F
ANDOVER*         N/A     69  64  84 CALM      30.11F
MORRISTOWN     CLOUDY    70  64  83 CALM      30.11F
NEWARK         CLOUDY    73  66  78 S8        30.11F
TETERBORO      CLOUDY    73  64  73 S5        30.10S
CALDWELL       CLOUDY    71  62  73 CALM      30.11F
SOMERVILLE     CLOUDY    69  64  84 CALM      30.09F
ALLAIRE*       CLOUDY    73  64  73 SW5       30.13S
TOMS RIVER*    MOCLDY    70  66  88 CALM      30.13S

$$
PAZ043-044-047-054-055-060>062-066>071-311100-
EASTERN PENNSYLVANIA

CITY           SKY/WX    TMP DP  RH WIND       PRES   REMARKS
PHILADELPHIA   CLOUDY    73  68  84 SE5       30.11F
NORTH PHILA    CLOUDY    74  67  78 VRB6      30.12F
BLUE BELL      MOCLDY    72  70  94 S5        30.10F
DOYLESTOWN     CLOUDY    71  68  90 S3        30.11S
QUAKERTOWN*    CLOUDY    70  66  88 CALM      30.12S
POTTSTOWN      CLOUDY    72  68  87 CALM      30.12F
LANCASTER      CLOUDY    72  69  90 SE5       30.09F
COATESVILLE    CLOUDY    70  70 100 CALM      30.12S FOG
READING        CLOUDY    74  70  87 S5        30.08F
ALLENTOWN      CLOUDY    72  66  81 S7        30.10S
MOUNT POCONO   FOG       68  66  93 SW8       30.14S VSB 1/2
HAZLETON       FOG       68  68 100 SE5       30.15F VSB 1/4
WILKES BARRE   CLOUDY    73  67  81 SW6       30.09S

$$
DEZALL-MDZ008-012-015-019-020-311100-
DELAWARE AND EASTERN MARYLAND

CITY           SKY/WX    TMP DP  RH WIND       PRES   REMARKS
WILMINGTON     CLOUDY    74  71  91 S7        30.12S
DOVER          CLOUDY    74  74 100 S9        30.11S
GEORGETOWN     PTCLDY    73  71  93 S10       30.14S
EASTON         PTCLDY    76  76 100 S3        30.16S
PATUXENT       PTCLDY    75  72  90 SW7       30.12S
OCEAN CITY     MOCLDY    77  74  90 SW9       30.14S
WALLOPS ISLAND PTCLDY    76  74  93 SW7       30.15S
CAMBRIDGE      PTCLDY    77  73  88 CALM      30.12S
SALISBURY      MOCLDY    76  72  87 S7        30.14S

$$
PAZ001-021-NYZ056-072-MDZ011-DCZ001-311100-
OTHER NEARBY LOCATIONS

CITY           SKY/WX    TMP DP  RH WIND       PRES   REMARKS
HARRISBURG     CLOUDY    74  70  87 SE5       30.07S
STATE COLLEGE  CLOUDY    70  68  94 CALM      30.07F HAZE
WILLIAMSPORT   CLOUDY    73  66  78 CALM      30.04F
BINGHAMTON     CLOUDY    69  65  86 S6        30.08S
NEW YORK CITY  CLOUDY    74  64  71 MISG      30.14S
BALTIMORE      CLOUDY    74  72  93 S3        30.10S
WASHINGTON DC  MOCLDY    77  72  84 S12       30.11S

$$




U.S. Dept. of Commerce
NOAA National Weather Service
1325 East West Highway
Silver Spring, MD 20910
E-mail: w-nws.webmaster@noaa.gov
Page last modified: May 16, 2007
NATIONAL WEATHER SERVICE: for Safety, for Work, for Fun - FOR LIFE